STARLINK-11534 [DTC] (62555 NORAD) Tracking and Keplerian Element Data

This shows tracking and keplerian element data for the satellite.

Feedback or suggestion? Click here.




ElementValue
Catalog62555
NameSTARLINK-11534 [DTC]
Epoch Orbit492
Epoch Day35.00420301
Epoch Year2025
RAAN27.1617
Inclination43.0002
Eccentricity0.0001643
Argument of Perigee263.7756
Mean Anonmoly96.2927
Mean Motion15.7785827
Decay Rate7.35E-06
L11 62555U 25006B 25035.00420301 .00000735 00000+0 70896-5 0 9990
L22 62555 43.0002 27.1617 0001643 263.7756 96.2927 15.77858270 4928



Live tracking and technical data element details for STARLINK-11534 [DTC] (NORAD 62555). STARLINK-11534 [DTC] can be tracked NOW for your location showing map with azimuth and elevation plus other details from your city location.







IsCatalogInMostPopularTable: catalog: 62555, numindb: 14
Update: records affected: 1



GetName: 62555 STARLINK-11534 [DTC]

Hit Count: updated at: Mon, 19 May 2025 03:14:48 GMT